Regional Weather Roundup
Issued by NWS

Home | Current Version | Previous Version | Graphics & Text | Print | Product List | Glossary On
Versions: 1 2 3 4 5 6 7 8 9 10 11 12 13 14 15 16 17 18 19 20 21 22 23 24 25 26 27 28 29 30 31 32 33 34 35 36 37 38 39 40 41 42 43 44 45 46 47 48 49 50
000
ASUS44 KMEG 290810
RWRTN
TENNESSEE HOURLY STATE WEATHER ROUNDUP
NATIONAL WEATHER SERVICE MEMPHIS TN
300 AM CDT SUN MAR 29 2015

TNZ002-004-019-021-049-052-054-088>092-290900-
WEST TENNESSEE

CITY           SKY/WX    TMP DP  RH WIND       PRES   REMARKS
MEMPHIS INTL   CLEAR     36  28  73 E5        30.27F WCI  32
NWS MEMPHIS      N/A     31 N/A N/A MISG        N/A
JACKSON        CLEAR     26  22  84 CALM      30.30F
DYERSBURG      CLEAR     30  16  55 CALM      30.32S
UNION CITY     CLEAR     30  19  64 CALM      30.29F
PARIS          CLEAR     28  18  64 SE6       30.31F WCI  22
LEXINGTON      CLEAR     25  19  80 CALM      30.31S
SAVANNAH       CLEAR     25  25 100 CALM      30.31F
$$

TNZ008-025-027-028-033-062-065-066-290900-
NORTH MIDDLE TENNESSEE

CITY           SKY/WX    TMP DP  RH WIND       PRES   REMARKS
NASHVILLE      CLEAR     28  21  75 S3        30.34F
CLARKSVILLE    CLEAR     29  18  63 CALM      30.33F
SMYRNA         CLEAR     24  22  92 CALM      30.36F
COOKEVILLE     CLEAR     21  19  93 CALM      30.33R
CROSSVILLE     FAIR      25  15  66 CALM      30.30S
$$

TNZ061-075-076-078-094-096-097-290900-
SOUTH MIDDLE TENNESSEE

CITY           SKY/WX    TMP DP  RH WIND       PRES   REMARKS
FAYETTEVILLE   CLEAR     28  12  50 E6        30.31S WCI  22
TULLAHOMA      CLEAR     27  16  63 CALM      30.32S
WINCHESTER     CLEAR     21  19  93 CALM      30.33S
MCMINNVILLE    CLEAR     23  19  86 NE3       30.33S
COLUMBIA       CLEAR     25  25 100 CALM      30.31F
SHELBYVILLE    CLEAR     27  19  74 E3        30.34F
$$

TNZ017-018-042-046-047-290900-
NORTHEAST TENNESSEE

CITY           SKY/WX    TMP DP  RH WIND       PRES   REMARKS
TRI CITIES     CLEAR     22  12  65 CALM      30.33R
ELIZABETHTON   SUNNY     19  12  73 CALM      30.33R
$$

TNZ012-013-036-069-073-074-290900-
CENTRAL EAST TENNESSEE

CITY           SKY/WX    TMP DP  RH WIND       PRES   REMARKS
KNOXVILLE      CLEAR     28  15  58 N6        30.34S WCI  22
OAK RIDGE      CLEAR     29  19  66 CALM      30.36S
GATLINBURG     SUNNY     21  18  86 CALM      30.34S
MORRISTOWN     SUNNY     25  18  74 E3        30.33S
$$

TNZ083-085-099-290900-
SOUTHEAST TENNESSEE

CITY           SKY/WX    TMP DP  RH WIND       PRES   REMARKS
CHATTANOOGA    CLEAR     33  20  58 CALM      30.34F
$$

SKY/WX REPORTED AS FAIR MEANS FEW OR NO CLOUDS BELOW
12 THOUSAND FEET.




USA.gov is the U.S. government's official web portal to all federal, state and local government web resources and services.